Location: Orange
(33.2833°S, 149.1000°E)
Time: 01:17:59
(UTC+11:00)

X-37B - Pass Details

Date: 14 December 2021
Orbit: 334 x 337 km, 45.0° (Epoch: 11 January)

Event Time Altitude Azimuth Distance (km) Brightness Sun altitude
Exits shadow 03:48:52 47° 172° (S) 462 1.2 -20.4°
Drops below altitude 10° 03:51:16 10° 132° (SE) 1,295 4.4 -20.1°
Sets 03:53:19 0° 127° (SE) 2,139 5.9 -19.8°
